Rome Ciampino, Italy

1:27 PM CEST on April 25, 2017 (GMT +0200)
Ciampino

Weather History for LIRA - November, 2013

Change the Weather History Date:

Wednesday, November 6, 2013

  Actual Average Record
Temperature  
Mean Temperature 59 °F -  
Max Temperature 68 °F 60 °F 71 °F (2010)
Min Temperature 50 °F 43 °F 41 °F (2002)
Degree Days  
Heating Degree Days 6    
Growing Degree Days 9 (Base 50)    
Moisture  
Dew Point 54 °F    
Average Humidity 87    
Maximum Humidity 100    
Minimum Humidity 64    
Precipitation  
Precipitation 0.00 in 0.17 in - ()
Sea Level Pressure  
Sea Level Pressure 29.70 in    
Wind  
Wind Speed 3 mph ()    
Max Wind Speed 9 mph    
Max Gust Speed -    
Visibility 6.2 miles    
Events      
Averages and records for this station are not official NWS values.
T = Trace of Precipitation, MM = Missing Value Source: Averaged Metar Reports

Daily Weather History Graph

Daily Weather History Graph

Search for Another Location

Airport or City:

Trip Planner

Search our weather history database for the weather conditions in past years. The results will help you decide how hot, cold, wet, or windy it might be!

Date:

Astronomy

Nov. 06, 2013 Rise Set
Actual Time 6:48 AM CET 4:58 PM CET
Civil Twilight 6:18 AM CET 5:27 PM CET
Nautical Twilight 5:45 AM CET 6:00 PM CET
Astronomical Twilight 5:13 AM CET 6:33 PM CET
Moon 9:47 AM CET (11/6) 7:42 PM CET (11/6)
Length of Visible Light 11h 08m
Length of Day
10h 10m
Waxing Crescent, 11% of the Moon is Illuminated
Nov 6
Waxing Crescent
Nov 10
First Quarter
Nov 17
Full
Nov 25
Last Quarter
Dec 3
New

Hourly Weather History & Observations

Time (CET) Temp. Dew Point Humidity Pressure Visibility Wind Dir Wind Speed Gust Speed Precip Events Conditions
12:15 AM 51.8 °F 51.8 °F 100% 29.50 in - ENE 3.5 mph - N/A   Clear
12:45 AM 53.6 °F 53.6 °F 100% 29.53 in - NE 3.5 mph - N/A   Clear
1:15 AM 53.6 °F 51.8 °F 94% 29.53 in - Calm Calm - N/A   Clear
1:45 AM 51.8 °F 50.0 °F 94% 29.53 in - Calm Calm - N/A   Clear
2:15 AM 51.8 °F 50.0 °F 94% 29.53 in - NNE 4.6 mph - N/A   Clear
2:45 AM 51.8 °F 50.0 °F 94% 29.53 in - NE 3.5 mph - N/A   Clear
3:15 AM 51.8 °F 50.0 °F 94% 29.53 in - ENE 2.3 mph - N/A   Clear
3:45 AM 51.8 °F 50.0 °F 94% 29.56 in - ENE 2.3 mph - N/A   Clear
4:15 AM 50.0 °F 50.0 °F 100% 29.56 in - Calm Calm - N/A   Clear
4:45 AM 50.0 °F 50.0 °F 100% 29.56 in - Calm Calm - N/A   Clear
5:15 AM 50.0 °F 48.2 °F 94% 29.59 in - Calm Calm - N/A   Clear
5:45 AM 50.0 °F 48.2 °F 94% 29.59 in - NE 4.6 mph - N/A   Clear
6:15 AM 50.0 °F 48.2 °F 94% 29.59 in - ENE 6.9 mph - N/A   Clear
6:45 AM 51.8 °F 50.0 °F 94% 29.62 in - NE 2.3 mph - N/A   Clear
7:15 AM 51.8 °F 50.0 °F 94% 29.62 in - North 3.5 mph - N/A   Clear
7:45 AM 51.8 °F 50.0 °F 94% 29.65 in - NW 5.8 mph - N/A   Clear
8:15 AM 53.6 °F 51.8 °F 94% 29.68 in - North 4.6 mph - N/A   Clear
8:45 AM 53.6 °F 51.8 °F 94% 29.68 in - North 3.5 mph - N/A   Clear
9:15 AM 57.2 °F 55.4 °F 94% 29.68 in - ENE 1.2 mph - N/A   Clear
9:45 AM 57.2 °F 53.6 °F 88% 29.68 in - North 1.2 mph - N/A   Clear
10:15 AM 59.0 °F 53.6 °F 82% 29.71 in - North 5.8 mph - N/A   Clear
10:45 AM 62.6 °F 53.6 °F 72% 29.71 in - North 5.8 mph - N/A   Clear
11:15 AM 64.4 °F 53.6 °F 68% 29.71 in - North 3.5 mph - N/A   Clear
11:45 AM 64.4 °F 53.6 °F 68% 29.71 in - North 8.1 mph - N/A   Clear
12:15 PM 66.2 °F 55.4 °F 68% 29.74 in - NNW 9.2 mph - N/A   Clear
12:45 PM 68.0 °F 55.4 °F 64% 29.74 in 6.2 mi North 9.2 mph - N/A   Partly Cloudy
1:15 PM 68.0 °F 57.2 °F 68% 29.74 in - North 8.1 mph - N/A   Clear
1:45 PM 68.0 °F 57.2 °F 68% 29.74 in 6.2 mi North 8.1 mph - N/A   Scattered Clouds
2:15 PM 68.0 °F 57.2 °F 68% 29.74 in 6.2 mi NNW 9.2 mph - N/A   Mostly Cloudy
2:45 PM 66.2 °F 57.2 °F 73% 29.74 in 6.2 mi WNW 6.9 mph - N/A   Scattered Clouds
3:15 PM 66.2 °F 57.2 °F 73% 29.77 in 6.2 mi WNW 8.1 mph - N/A   Scattered Clouds
3:45 PM 66.2 °F 57.2 °F 73% 29.77 in 6.2 mi WNW 5.8 mph - N/A   Scattered Clouds
4:15 PM 66.2 °F 57.2 °F 73% 29.77 in 6.2 mi NW 2.3 mph - N/A   Partly Cloudy
4:45 PM 64.4 °F 57.2 °F 77% 29.77 in - NW 1.2 mph - N/A   Clear
5:15 PM 62.6 °F 57.2 °F 82% 29.77 in - NNW 3.5 mph - N/A   Clear
5:45 PM 60.8 °F 57.2 °F 88% 29.77 in - NNW 1.2 mph - N/A   Clear
6:15 PM 60.8 °F 57.2 °F 88% 29.80 in - Calm Calm - N/A   Clear
6:45 PM 60.8 °F 57.2 °F 88% 29.80 in - Calm Calm - N/A   Clear
7:15 PM 59.0 °F 57.2 °F 94% 29.83 in - Calm Calm - N/A   Clear
7:45 PM 59.0 °F 55.4 °F 88% 29.83 in - NNW 1.2 mph - N/A   Clear
8:15 PM 57.2 °F 55.4 °F 94% 29.83 in - Calm Calm - N/A   Clear
8:45 PM 57.2 °F 55.4 °F 94% 29.83 in - ENE 3.5 mph - N/A   Clear
9:15 PM 57.2 °F 55.4 °F 94% 29.86 in - NE 3.5 mph - N/A   Clear
9:45 PM 55.4 °F 53.6 °F 94% 29.86 in - NNE 3.5 mph - N/A   Clear
10:15 PM 55.4 °F 53.6 °F 94% 29.86 in - North 3.5 mph - N/A   Clear
10:45 PM 55.4 °F 53.6 °F 94% 29.86 in - Calm Calm - N/A   Clear
11:15 PM 55.4 °F 53.6 °F 94% 29.89 in - Calm Calm - N/A   Clear
11:45 PM 53.6 °F 53.6 °F 100% 29.89 in - East 2.3 mph - N/A   Clear